Regional Weather Roundup
Issued by NWS

Home | Current Version | Previous Version | Text Only | Print | Product List | Glossary Off
Versions: 1 2 3 4 5 6 7 8 9 10 11 12 13 14 15 16 17 18 19 20 21 22 23 24 25 26 27 28 29 30 31 32 33 34 35 36 37 38 39 40 41 42 43 44 45 46 47 48 49 50

000
ASUS43 KLOT 040708
RWRIL

ILLINOIS REGIONAL WEATHER ROUNDUP
NATIONAL WEATHER SERVICE CHICAGO/ROMEOVILLE IL
200 AM CDT FRI SEP 04 2015

NOTE: "FAIR" INDICATES FEW OR NO CLOUDS BELOW 12,000 FEET WITH NO
SIGNIFICANT WEATHER AND/OR OBSTRUCTIONS TO VISIBILITY.

* THESE STATIONS ARE NOT UNDER NWS QUALITY CONTROL. THEY ALSO MAY NOT
  REPORT WEATHER SUCH AS PRECIPITATION OR FOG.

ILZ001-002-007-009-015-016-024-040800-
NORTHWEST ILLINOIS

CITY           SKY/WX    TMP DP  RH WIND       PRES   REMARKS
MOLINE         CLEAR     72  68  87 CALM      29.94R
STERLING*      CLEAR     73  72  94 NE5       29.93S
SAVANNA*       CLEAR     73  71  92 NE7       29.94S
$$

ILZ003-004-008-010-011-017-018-040800-
NORTH CENTRAL ILLINOIS

CITY           SKY/WX    TMP DP  RH WIND       PRES   REMARKS
ROCKFORD       CLEAR     70  66  87 CALM      29.98S
FREEPORT*      CLEAR     68  66  93 E9        29.99S
ROCHELLE*      CLEAR     69  66  92 E6        29.98S
DE KALB*       CLEAR     67  66  94 CALM      29.99S
PERU*          CLEAR     73  68  86 NE8       29.96R
$$

ILZ005-006-012>014-019>023-040800-
NORTHEAST ILLINOIS

CITY           SKY/WX    TMP DP  RH WIND       PRES   REMARKS
CHICAGO-OHARE  PTCLDY    70  67  90 NE3       29.96F
CHICAGO-MIDWAY PTCLDY    73  67  81 E7        29.96F
AURORA         CLEAR     70  66  87 NE6       29.97S
LANSING*       CLOUDY    71  67  87 NE5       29.96F
JOLIET*        CLEAR     72  68  88 CALM      29.97R
WAUKEGAN       PTCLDY    66  65  96 CALM      29.96S
DUPAGE AIRPORT CLEAR     70  65  84 NE5       29.97S
KANKAKEE*      CLEAR     69  68  95 CALM      29.97R FOG
WHEELING       CLEAR     69  66  90 CALM      29.98S
MORRIS*        CLEAR     70  67  92 CALM      29.96R FOG
ROMEOVILLE*    CLEAR     70  66  88 NE7       29.97S
NORTHERLY ISL    N/A     69  66  90 NW3         N/A
$$

LMZ740>746-040800-
SOUTHERN LAKE MICHIGAN

STATION/POSITION SKY/WX   TEMP    WIND        PRES    VSBY  WAVE
                          AIR SEA DIR/SP/G                  HT/PER
                          (F)     (DEG/KT/KT) (MB)    (MI)  (FT/S)
SOUTHERN BUOY              69 71  300/ 10/ 12 1013.5F         1/ 4
WILMETTE HARBOR            65 71  110/  4/  6   N/A           2/ 2
HARRISON CRIB              70     360/  5/  6   N/A
BURNHAM HARBOR             69     350/  2/  5   N/A
CALUMET HARBOR             71      20/  5/  7   N/A
BURNS HARBOR               72      40/  7/  8 1015.2R
MICHIGAN CITY              71     360/  8/  9   N/A
MICHIGAN CITY 6N           72 73   20/  6/  8   N/A           2/ 4
ST. JOSEPH                 70 73   30/  6/  6   N/A           2/ 4
$$

ILZ025>027-034>036-040-047-049-050-058-095>099-040800-
WEST-CENTRAL ILLINOIS

CITY           SKY/WX    TMP DP  RH WIND       PRES   REMARKS
QUINCY         CLEAR     73  67  81 S3        29.95S
GALESBURG*     CLEAR     72  68  87 S3        29.95S
MACOMB*        CLEAR     71  68  92 SW3       29.97S
JACKSONVILLE*  CLEAR     75  69  81 SW5       29.95S
PITTSFIELD*    CLEAR     77  68  74 S3        29.97S
$$

ILZ028>032-037-038-041>044-048-051>054-059>061-040800-
CENTRAL ILLINOIS

CITY           SKY/WX    TMP DP  RH WIND       PRES   REMARKS
PONTIAC        CLEAR     69  68  96 CALM      29.96R
BLOOMINGTON    CLEAR     73  68  84 SW6       29.98S
DECATUR        CLEAR     74  67  78 SW5       29.96F
PEORIA         CLEAR     77  67  71 CALM      29.95S
LACON*         CLEAR     71  68  92 CALM      29.94S
LINCOLN*       CLEAR     69  64  84 CALM      29.95S
SPRINGFIELD    CLEAR     73  67  81 W3        29.96S
TAYLORVILLE    CLEAR     70  68  94 CALM      29.96F
$$

ILZ033-039-045-046-055>057-062-063-040800-
EAST-CENTRAL ILLINOIS

CITY           SKY/WX    TMP DP  RH WIND       PRES   REMARKS
CHAMPAIGN      CLEAR     71  68  90 W3        29.97S
RANTOUL*       CLEAR     74  69  82 CALM      29.96S
MATTOON          N/A     77  66  68 SW7       29.96S
PARIS*         PTCLDY    71  68  90 SW5       29.98S
$$

ILZ079-100>102-040800-
SOUTHWEST ILLINOIS

CITY           SKY/WX    TMP DP  RH WIND       PRES   REMARKS
ALTON          CLEAR     69  68  96 CALM      29.97R
CAHOKIA*       CLEAR     72  69  90 CALM      29.96S
SPARTA*        CLEAR     76  70  81 SW6       29.98S
$$

ILZ064>066-069>071-074>076-080>082-084>086-088>090-092>094-040800-
SOUTH-CENTRAL ILLINOIS

CITY           SKY/WX    TMP DP  RH WIND       PRES   REMARKS
CARBONDALE     CLEAR     70  69  97 CALM      29.97S FOG
CAIRO*         CLEAR     67  67 100 CALM      29.97R FOG
EFFINGHAM*     CLEAR     69  66  91 CALM      29.98S FOG
MARION         CLEAR     73  72  94 S3        29.97S
MT. VERNON     CLEAR     66  63  88 CALM      29.98S
CENTRALIA*     CLEAR     70  69  98 CALM      29.96S
SALEM*         CLEAR     70  67  91 CALM      29.97S
METROPOLIS*      N/A     68  68 100 CALM      29.97S FOG
$$

ILZ067-068-072-073-078-083-087-091-040800-
SOUTHEAST ILLINOIS

CITY           SKY/WX    TMP DP  RH WIND       PRES   REMARKS
LAWRENCEVILLE  CLEAR     72  68  87 SW3       29.97S
FLORA*         CLEAR     69  66  88 SE6       29.97S
FAIRFIELD*     CLEAR     69  68  99 CALM      29.96S FOG
HARRISBURG*    CLEAR     66  66  99 CALM      29.97S FOG
ROBINSON*      CLEAR     67  66  96 CALM      29.97S
CARMI*         CLEAR     67  66  97 CALM      29.96S FOG
$$

ABBREVIATIONS USED IN REMARKS
   TC - TEMPERATURE IN CELSIUS
  WCI - WIND CHILL INDEX
   HX - HEAT INDEX
  VSB - VISIBILITY
$$



USA.gov is the U.S. government's official web portal to all federal, state and local government web resources and services.